sat.trackr.live / text

‹ back to catalog

STARLINK-36119

NORAD 67619 · 2026-020C

PAYLOAD ACTIVE UNKNOWN

§ Identity

Operator
Country
US
Launch date
2026-01-30
Launch site
AFETR
Launch vehicle
Mass (kg)
RCS (m²)

Purposes: comms

External: N2YO · Heavens-Above · Gunter

§ Orbital elements

Epoch: 2026-05-25T03:25:59.695392Z

Period
94.27 min
Inclination
43.0002°
Eccentricity
0.0001327
Mean motion
15.27600785 rev/d
Perigee alt
482.1 km
Apogee alt
483.9 km
Semi-major
6,861.1 km
B*
7.3550e-4
RAAN
68.2344°
Arg perigee
274.7946°
Mean anomaly
85.2754°
Rev number
1,780

§ Raw data

STARLINK-361191 67619U 26020C   26145.14305203  .00020045  00000+0  73550-3 0  99982 67619  43.0002  68.2344 0001327 274.7946  85.2754 15.27600785 17807

JSON: /api/v1/satellites/67619 · /tle

For live sub-satellite position, see the globe view (requires WebGL).

§ Visibility from observer

Set your observer location to see the next 7 days of passes ≥ 10°. The values pass through the URL so the page stays shareable.

No JS? Fill the form by hand. The geolocation button needs JavaScript.